| time (UTC) | temp F | wind direction | speed MPH | gust MPH | rain 1hr in | rain 24hr in | rain mn in | humidity % | barometer mb |
| 20260505163010 | 56 | 0.0 | 0.0 | 0.00 | 0.26 | 0.26 | 89 | 1010.5 | |
| 20260505161506 | 56 | 0.0 | 0.0 | 0.00 | 0.26 | 0.26 | 88 | 1010.3 | |
| 20260505153106 | 56 | 0.0 | 0.0 | 0.00 | 0.26 | 0.26 | 86 | 1010.4 | |
| 20260505151548 | 56 | 0.0 | 0.0 | 0.00 | 0.26 | 0.26 | 86 | 1010.3 | |
| 20260505124514 | 56 | 0.0 | 0.0 | 0.00 | 0.26 | 0.26 | 89 | 1010.9 | |
| 20260505123011 | 56 | 0.0 | 0.0 | 0.00 | 0.26 | 0.26 | 90 | 1011.1 | |
| 20260505121512 | 56 | 0.0 | 0.0 | 0.00 | 0.26 | 0.26 | 90 | 1011.2 | |
| 20260505120010 | 55 | 0.0 | 0.0 | 0.00 | 0.26 | 0.26 | 90 | 1011.1 | |
| 20260505114509 | 55 | 0.0 | 0.0 | 0.00 | 0.26 | 0.26 | 91 | 1011.1 | |
| 20260505113009 | 55 | 0.0 | 0.0 | 0.00 | 0.26 | 0.26 | 90 | 1011.2 | |
| 20260505111514 | 55 | 0.0 | 0.0 | 0.00 | 0.26 | 0.26 | 91 | 1011.4 | |
| 20260505101549 | 55 | 0.0 | 0.0 | 0.01 | 0.26 | 0.26 | 90 | 1011.7 | |
| 20260505100045 | 56 | 0.0 | 0.0 | 0.01 | 0.26 | 0.26 | 90 | 1011.5 | |
| 20260505094548 | 56 | 0.0 | 0.0 | 0.01 | 0.26 | 0.26 | 90 | 1011.5 | |
| 20260505093046 | 56 | 0.0 | 0.0 | 0.01 | 0.26 | 0.26 | 90 | 1011.5 | |
| 20260505091545 | 56 | 0.0 | 0.0 | 0.00 | 0.25 | 0.25 | 89 | 1011.5 | |
| 20260505090049 | 55 | 0.0 | 0.0 | 0.00 | 0.25 | 0.25 | 88 | 1011.5 | |
| 20260505084536 | 56 | 0.0 | 0.0 | 0.00 | 0.25 | 0.25 | 88 | 1011.3 | |
| 20260505083032 | 55 | 0.0 | 0.0 | 0.00 | 0.25 | 0.25 | 88 | 1011.3 | |
| 20260505081536 | 54 | 0.0 | 0.0 | 0.00 | 0.25 | 0.25 | 90 | 1011.0 | |
| 20260505080044 | 54 | 0.0 | 0.0 | 0.01 | 0.25 | 0.25 | 91 | 1010.9 | |
| 20260505074519 | 53 | 0.0 | 0.0 | 0.01 | 0.25 | 0.25 | 92 | 1011.1 | |
| 20260505073017 | 53 | 0.0 | 0.0 | 0.01 | 0.25 | 0.25 | 93 | 1011.0 | |
| 20260505071510 | 53 | 0.0 | 0.0 | 0.02 | 0.25 | 0.25 | 93 | 1011.1 | |
| 20260505070005 | 53 | 0.0 | 0.0 | 0.02 | 0.24 | 0.24 | 93 | 1011.2 | |
| 20260505064501 | 52 | 0.0 | 0.0 | 0.05 | 0.24 | 0.24 | 93 | 1011.3 | |
| 20260505063101 | 52 | 0.0 | 0.0 | 0.08 | 0.24 | 0.24 | 92 | 1011.5 | |
| 20260505061600 | 52 | 0.0 | 0.0 | 0.11 | 0.24 | 0.24 | 92 | 1011.4 | |
| 20260505060048 | 52 | 0.0 | 0.0 | 0.13 | 0.23 | 0.23 | 92 | 1011.5 | |
| 20260505054545 | 52 | 0.0 | 0.0 | 0.13 | 0.20 | 0.20 | 91 | 1011.5 | |
| 20260505053039 | 52 | 0.0 | 0.0 | 0.10 | 0.17 | 0.17 | 91 | 1011.4 | |
| 20260505051538 | 52 | 315 | 3.0 | 7.0 | 0.07 | 0.13 | 0.13 | 90 | 1011.4 |
| 20260505050113 | 52 | 338 | 4.0 | 11.0 | 0.06 | 0.09 | 0.09 | 90 | 1011.3 |
| 20260505041547 | 52 | 344 | 6.0 | 10.0 | 0.04 | 0.06 | 0.06 | 89 | 1011.2 |
| 20260505040028 | 53 | 318 | 2.0 | 7.0 | 0.02 | 0.04 | 0.04 | 87 | 1011.2 |
| 20260505034525 | 53 | 311 | 3.0 | 8.0 | 0.02 | 0.03 | 0.03 | 86 | 1011.3 |
| 20260505033023 | 54 | 291 | 4.0 | 6.0 | 0.01 | 0.02 | 0.02 | 83 | 1011.3 |
| 20260505031520 | 54 | 243 | 3.0 | 7.0 | 0.01 | 0.02 | 0.02 | 81 | 1011.3 |
| 20260505030017 | 55 | 262 | 4.0 | 10.0 | 0.01 | 0.02 | 0.02 | 78 | 1011.3 |
| 20260505024517 | 55 | 305 | 6.0 | 11.0 | 0.01 | 0.02 | 0.02 | 76 | 1011.5 |
| 20260505021510 | 55 | 292 | 4.0 | 11.0 | 0.00 | 0.01 | 0.01 | 76 | 1011.8 |
| 20260505020009 | 55 | 295 | 3.0 | 10.0 | 0.01 | 0.01 | 0.01 | 76 | 1012.1 |
| 20260505014505 | 55 | 319 | 4.0 | 10.0 | 0.01 | 0.01 | 0.01 | 77 | 1012.2 |
| 20260505013103 | 55 | 290 | 2.0 | 7.0 | 0.01 | 0.01 | 0.01 | 77 | 1012.4 |
| 20260505011605 | 56 | 278 | 4.0 | 8.0 | 0.01 | 0.01 | 0.01 | 74 | 1012.7 |
| 20260505010055 | 57 | 261 | 2.0 | 5.0 | 0.00 | 0.00 | 0.00 | 70 | 1012.9 |
| 20260505004549 | 58 | 329 | 3.0 | 7.0 | 0.00 | 0.00 | 0.00 | 67 | 1013.2 |
| 20260505003045 | 58 | 313 | 3.0 | 7.0 | 0.00 | 0.00 | 0.00 | 64 | 1013.3 |
| 20260505001558 | 58 | 322 | 3.0 | 8.0 | 0.00 | 0.00 | 0.00 | 62 | 1013.4 |
| 20260505000051 | 59 | 259 | 3.0 | 7.0 | 0.00 | 0.00 | 0.00 | 59 | 1013.6 |
| 20260504234553 | 59 | 281 | 3.0 | 7.0 | 0.00 | 0.00 | 0.00 | 58 | 1013.7 |
| 20260504233039 | 59 | 268 | 4.0 | 8.0 | 0.00 | 0.00 | 0.00 | 57 | 1013.9 |
| 20260504231536 | 59 | 319 | 4.0 | 10.0 | 0.00 | 0.00 | 0.00 | 57 | 1014.0 |
| 20260504230033 | 59 | 312 | 3.0 | 13.0 | 0.00 | 0.00 | 0.00 | 58 | 1014.2 |
| 20260504224531 | 60 | 273 | 9.0 | 17.0 | 0.00 | 0.00 | 0.00 | 59 | 1014.3 |
| 20260504223029 | 60 | 341 | 6.0 | 15.0 | 0.00 | 0.00 | 0.00 | 58 | 1014.2 |
| 20260504221529 | 60 | 323 | 7.0 | 20.0 | 0.00 | 0.00 | 0.00 | 57 | 1014.2 |
| 20260504220025 | 60 | 298 | 7.0 | 16.0 | 0.00 | 0.00 | 0.00 | 57 | 1014.4 |
| 20260504214523 | 60 | 327 | 6.0 | 14.0 | 0.00 | 0.00 | 0.00 | 58 | 1014.6 |
| 20260504213043 | 60 | 348 | 9.0 | 15.0 | 0.00 | 0.00 | 0.00 | 58 | 1015.0 |
| 20260504211523 | 60 | 345 | 8.0 | 18.0 | 0.00 | 0.00 | 0.00 | 59 | 1015.1 |
| 20260504210021 | 60 | 269 | 8.0 | 17.0 | 0.00 | 0.00 | 0.00 | 58 | 1015.2 |
| 20260504204520 | 60 | 336 | 6.0 | 16.0 | 0.00 | 0.00 | 0.00 | 58 | 1015.3 |
| 20260504203019 | 60 | 355 | 7.0 | 18.0 | 0.00 | 0.00 | 0.00 | 58 | 1015.2 |
| 20260504201524 | 60 | 326 | 8.0 | 16.0 | 0.00 | 0.00 | 0.00 | 56 | 1015.2 |
| 20260504200019 | 61 | 330 | 7.0 | 14.0 | 0.00 | 0.00 | 0.00 | 55 | 1015.1 |
| 20260504194519 | 61 | 318 | 7.0 | 13.0 | 0.00 | 0.00 | 0.00 | 53 | 1015.2 |
| 20260504193016 | 61 | 290 | 7.0 | 14.0 | 0.00 | 0.00 | 0.00 | 53 | 1015.2 |
| 20260504191518 | 62 | 288 | 8.0 | 16.0 | 0.00 | 0.00 | 0.00 | 54 | 1014.9 |
| 20260504190015 | 61 | 343 | 10.0 | 16.0 | 0.00 | 0.00 | 0.00 | 56 | 1014.7 |
| 20260504184515 | 60 | 317 | 2.0 | 5.0 | 0.00 | 0.00 | 0.00 | 70 | 1014.6 |
| 20260504183020 | 61 | 312 | 2.0 | 4.0 | 0.00 | 0.00 | 0.00 | 71 | 1014.3 |
| 20260504181513 | 61 | 360 | 0.0 | 0.0 | 0.00 | 0.00 | 0.00 | 72 | 1014.3 |
| 20260504180013 | 61 | 153 | 0.0 | 0.0 | 0.00 | 0.00 | 0.00 | 71 | 1014.2 |
| 20260504174512 | 62 | 153 | 0.0 | 5.0 | 0.00 | 0.00 | 0.00 | 69 | 1014.2 |
| 20260504173023 | 62 | 122 | 1.0 | 4.0 | 0.00 | 0.00 | 0.00 | 69 | 1014.1 |
| 20260504171518 | 62 | 87 | 0.0 | 0.0 | 0.00 | 0.00 | 0.00 | 67 | 1014.0 |